Time,TemperatureF,DewpointF,PressureIn,WindDirection,WindDirectionDegrees,WindSpeedMPH,WindSpeedGustMPH,Humidity,HourlyPrecipIn,Conditions,Clouds,dailyrainin,SoftwareType,DateUTC
2013-09-25 08:00:00,62.0,38.0,-100.00,North,-999,-999.0,-999.0,40,0.00,,,-99.99,,2013-09-25 15:00:00,
2013-09-25 08:44:00,62.0,38.0,-100.00,North,-999,-999.0,-999.0,40,0.00,,,-99.99,,2013-09-25 15:44:00,
2013-09-25 08:53:00,62.0,38.0,-100.00,North,-999,-999.0,-999.0,40,0.00,,,-99.99,,2013-09-25 15:53:00,
2013-09-25 09:00:00,72.0,36.0,-100.00,North,-999,-999.0,-999.0,26,0.00,,,-99.99,,2013-09-25 16:00:00,
2013-09-25 09:43:00,72.0,36.0,-100.00,North,-999,-999.0,-999.0,26,0.00,,,-99.99,,2013-09-25 16:43:00,
2013-09-25 09:53:00,72.0,36.0,-100.00,North,-999,-999.0,-999.0,26,0.00,,,-99.99,,2013-09-25 16:53:00,
2013-09-25 10:00:00,81.0,32.0,-100.00,North,-999,-999.0,-999.0,16,0.00,,,-99.99,,2013-09-25 17:00:00,
2013-09-25 10:43:00,81.0,32.0,-100.00,North,-999,-999.0,-999.0,16,0.00,,,-99.99,,2013-09-25 17:43:00,
2013-09-25 10:52:00,81.0,32.0,-100.00,North,-999,-999.0,-999.0,16,0.00,,,-99.99,,2013-09-25 17:52:00,
2013-09-25 11:00:00,86.0,31.0,-100.00,North,-999,-999.0,-999.0,13,0.00,,,-99.99,,2013-09-25 18:00:00,
2013-09-25 11:42:00,86.0,31.0,-100.00,North,-999,-999.0,-999.0,13,0.00,,,-99.99,,2013-09-25 18:42:00,
2013-09-25 11:52:00,86.0,31.0,-100.00,North,-999,-999.0,-999.0,13,0.00,,,-99.99,,2013-09-25 18:52:00,
2013-09-25 12:00:00,88.0,31.0,-100.00,North,-999,-999.0,-999.0,13,0.00,,,-99.99,,2013-09-25 19:00:00,
2013-09-25 12:42:00,88.0,31.0,-100.00,North,-999,-999.0,-999.0,13,0.00,,,-99.99,,2013-09-25 19:42:00,
2013-09-25 12:52:00,88.0,31.0,-100.00,North,-999,-999.0,-999.0,13,0.00,,,-99.99,,2013-09-25 19:52:00,
2013-09-25 13:00:00,88.0,31.0,-100.00,North,-999,-999.0,-999.0,13,0.00,,,-99.99,,2013-09-25 20:00:00,
2013-09-25 13:43:00,88.0,31.0,-100.00,North,-999,-999.0,-999.0,13,0.00,,,-99.99,,2013-09-25 20:43:00,
2013-09-25 13:52:00,88.0,31.0,-100.00,North,-999,-999.0,-999.0,13,0.00,,,-99.99,,2013-09-25 20:52:00,
2013-09-25 14:00:00,88.0,32.0,-100.00,North,-999,-999.0,-999.0,13,0.00,,,-99.99,,2013-09-25 21:00:00,
2013-09-25 14:44:00,88.0,32.0,-100.00,North,-999,-999.0,-999.0,13,0.00,,,-99.99,,2013-09-25 21:44:00,
2013-09-25 14:54:00,88.0,32.0,-100.00,North,-999,-999.0,-999.0,13,0.00,,,-99.99,,2013-09-25 21:54:00,
2013-09-25 15:00:00,91.0,32.0,-100.00,North,-999,-999.0,-999.0,12,0.00,,,-99.99,,2013-09-25 22:00:00,
2013-09-25 15:42:00,91.0,32.0,-100.00,North,-999,-999.0,-999.0,12,0.00,,,-99.99,,2013-09-25 22:42:00,
2013-09-25 15:53:00,91.0,32.0,-100.00,North,-999,-999.0,-999.0,12,0.00,,,-99.99,,2013-09-25 22:53:00,
2013-09-25 16:00:00,89.0,32.0,-100.00,North,-999,-999.0,-999.0,12,0.00,,,-99.99,,2013-09-25 23:00:00,
2013-09-25 16:42:00,89.0,32.0,-100.00,North,-999,-999.0,-999.0,12,0.00,,,-99.99,,2013-09-25 23:42:00,
2013-09-25 16:53:00,89.0,32.0,-100.00,North,-999,-999.0,-999.0,12,0.00,,,-99.99,,2013-09-25 23:53:00,
2013-09-25 17:00:00,87.0,31.0,-100.00,North,-999,-999.0,-999.0,13,0.00,,,-99.99,,2013-09-26 00:00:00,
2013-09-25 17:42:00,87.0,31.0,-100.00,North,-999,-999.0,-999.0,13,0.00,,,-99.99,,2013-09-26 00:42:00,
2013-09-25 17:52:00,87.0,31.0,-100.00,North,-999,-999.0,-999.0,13,0.00,,,-99.99,,2013-09-26 00:52:00,
2013-09-25 18:00:00,82.0,29.0,-100.00,North,-999,-999.0,-999.0,14,0.00,,,-99.99,,2013-09-26 01:00:00,
2013-09-25 18:42:00,82.0,29.0,-100.00,North,-999,-999.0,-999.0,14,0.00,,,-99.99,,2013-09-26 01:42:00,
2013-09-25 18:52:00,82.0,29.0,-100.00,North,-999,-999.0,-999.0,14,0.00,,,-99.99,,2013-09-26 01:52:00,
2013-09-25 19:00:00,74.0,31.0,-100.00,North,-999,-999.0,-999.0,20,0.00,,,-99.99,,2013-09-26 02:00:00,
2013-09-25 19:52:00,74.0,31.0,-100.00,North,-999,-999.0,-999.0,20,0.00,,,-99.99,,2013-09-26 02:52:00,